Location: College Park
(38.9810°N, 76.9370°W)
Time: 20:06:24
(UTC-05:00)

Vanguard 1 - Visible Passes

Search period start: 20 November 2017 00:00
Search period end: 30 November 2017 00:00
Orbit: 650 x 3834 km, 34.2° (Epoch: 17 November)

Date Brightness Start Highest point End Pass type
(mag) Time Alt. Az. Time Alt. Az. Time Alt. Az.
20 Nov 9.9 19:01:33 10° W 19:05:45 46° S 19:05:51 46° S visible
21 Nov 10.5 19:22:32 10° W 19:25:47 36° SW 19:25:47 36° SW visible
22 Nov 9.9 17:23:17 10° WSW 17:28:00 48° S 17:32:18 10° ESE visible
22 Nov 11.3 19:43:35 10° WSW 19:45:44 24° SW 19:45:44 24° SW visible
23 Nov 9.9 17:44:19 10° WSW 17:48:54 48° S 17:52:59 11° ESE visible
23 Nov 11.9 20:04:47 10° WSW 20:05:42 15° WSW 20:05:42 15° WSW visible
24 Nov 10.1 18:05:22 10° W 18:09:48 43° S 18:12:59 17° ESE visible
25 Nov 10.3 18:26:28 10° W 18:30:40 36° SSW 18:33:02 21° SE visible
26 Nov 10.8 18:47:38 10° WSW 18:51:31 28° SSW 18:53:07 22° SSE visible
27 Nov 11.1 19:08:59 10° WSW 19:12:20 21° SSW 19:13:16 19° S visible
28 Nov 10.4 17:08:33 10° W 17:13:47 44° SSW 17:18:00 10° ESE visible
28 Nov 11.7 19:30:47 10° WSW 19:33:09 14° SSW 19:33:27 14° SSW visible
29 Nov 10.7 17:29:46 10° W 17:34:38 36° SSW 17:38:41 10° SE visible
